Skip Page Navigation
NASA JPL Caltech
NASA Logo - Jet Propulsion Laboratory + View the NASA Portal
+ Center for Near-Earth Object Studies
JPL Home Earth Solar System Stars & Galaxies Technology
JPL Solar System Dynamics
BODIES ORBITS EPHEMERIDES TOOLS PHYSICAL DATA DISCOVERY FAQ SITE MAP
IMPORTANT: The SSD Announcement email list is now available. Major changes are coming in the near future, including possible hostname and/or URL changes. To be notified of such changes, subscribe to this email list.

Please visit this page for more details.


JPL Small-Body Database Browser
Search: [ help ]  
59764 (1999 NK3)
Classification: Main-belt Asteroid          SPK-ID: 2059764
Ephemeris | Orbit Diagram | Orbital Elements | Mission Design | Physical Parameters | Discovery Circumstances | Close-Approach Data ]

[ show orbit diagram ]
Orbital Elements at Epoch 2458600.5 (2019-Apr-27.0) TDB
Reference: JPL 25 (heliocentric ecliptic J2000)
 Element Value Uncertainty (1-sigma)   Units 
e .2448786712074344 4.9807e-08  
a 2.699941417895066 1.8647e-08 au
q 2.038783351143006 1.3311e-07 au
i 11.10890215885839 4.9497e-06 deg
node 263.1375408430853 3.5964e-05 deg
peri 45.36800165508635 3.8003e-05 deg
M 158.6346384624715 1.3774e-05 deg
tp 2457886.455199695040
(2017-May-12.95519970)
6.0039e-05 TDB
period 1620.428744952811
4.44
1.6787e-05
4.596e-08
d
yr
n .2221634250326037 2.3015e-09 deg/d
Q 3.361099484647126 2.3213e-08 au
  Orbit Determination Parameters
   # obs. used (total)      790  
   data-arc span      7172 days (19.64 yr)  
   first obs. used      1999-06-08  
   last obs. used      2019-01-26  
   planetary ephem.      DE431  
   SB-pert. ephem.      SB431-N16  
   condition code      0  
   norm. resid. RMS      .49904  
   source      ORB  
   producer      Otto Matic  
   solution date      2019-Jul-13 03:40:22  

Additional Information
 Earth MOID = 1.03987 au 
 Jupiter MOID = 1.94868 au 
 T_jup = 3.298 
[ show covariance matrix ]

Ephemeris | Orbit Diagram | Orbital Elements | Mission Design | Physical Parameters | Discovery Circumstances | Close-Approach Data ]

Physical Parameter Table
Parameter Symbol Value Units Sigma Reference Notes
absolute magnitude H 14.7   n/a MPO333329  
diameter diameter 5.232 km 0.821 urn:nasa:pds:neowise_diameters_albedos::2.0[mainbelt] (http://adsabs.harvard.edu/abs/2011ApJ...741...68M)  
geometric albedo albedo 0.102   0.037 urn:nasa:pds:neowise_diameters_albedos::2.0[mainbelt] (http://adsabs.harvard.edu/abs/2011ApJ...741...68M)  

59764 (1999 NK3)          Discovered 1999-Jul-13 by LINEAR at Socorro
Reference: 20030614/Numbers.arcLast Updated: 2004-04-19

[ show close-approach data ]
Ephemeris | Orbit Diagram | Orbital Elements | Mission Design | Physical Parameters | Discovery Circumstances | Close-Approach Data ]
ABOUT SSD CREDITS/AWARDS PRIVACY/COPYRIGHT GLOSSARY LINKS
FirstGov 2020-Jan-27 18:48 UT
(server date/time)  
NASA Home Page
Site Manager:   Ryan S. Park
Webmaster  Alan B. Chamberlin